Flag for Norway Weather past 2 weeks in Finse, Norway

Now
29 °F

Chilly.


Feels Like: 23 °F
Forecast: 7 / 31 °F
Wind: 6 mph from Southeast

Location: Finsevatn


UV Index: 0 (Low)

Visibility: N/A


Pressure: 29.96 "Hg

Humidity: 75%

Dew point: 22 °F

Location of FinseLocation

Historic Weather in Finse

°F

Finse temperature yesterday

Maximum temperature yesterday: 36 °F (at 6:00 PM)
Minimum temperature yesterday: 24 °F (at 3:00 AM)
Average temperature yesterday: 31 °F

Past Weeks' High & Low Weather Summary

 TemperatureHumidityPressure
High39 °F (Apr 7, 6:00 PM)96% (Apr 6, 3:00 AM)30.43 "Hg (Apr 6, 3:00 AM)
Low1 °F (Apr 3, 7:00 AM)44% (Apr 2, 2:00 PM)29.21 "Hg (Apr 13, 4:00 AM)
Average27 °F83%29.86 "Hg
* Reported Apr 2 2:00 AM — Apr 17 2:00 AM, Finse, Weather by CustomWeather, © 2014

Note: Actual official high and low records may vary slightly from our data, if they occured in-between our weather recording intervals... More about our weather records

Advertising

Historic Weather Conditions — Data for Previous 24 hours

 ConditionsComfort  
Time TempWeatherWind HumidityBarometerVisibility
2:00 AM
Apr 17
29 °FChilly.6 mph75%29.96 "HgN/A
1:00 AM31 °FChilly.6 mph87%29.98 "HgN/A
12:00 AM33 °FChilly.2 mph77%29.98 "HgN/A
11:00 PM
Apr 16
33 °FChilly.7 mph79%30.02 "HgN/A
10:00 PM33 °FChilly.6 mph80%30.04 "HgN/A
9:00 PM34 °FChilly.8 mph80%30.06 "HgN/A
8:00 PM34 °FChilly.8 mph80%30.06 "HgN/A
7:00 PM35 °FChilly.10 mph76%30.08 "HgN/A
6:00 PM36 °FChilly.7 mph71%30.09 "HgN/A
5:00 PM36 °FChilly.10 mph74%30.11 "HgN/A
4:00 PM36 °FChilly.7 mph68%30.13 "HgN/A
3:00 PM35 °FChilly.8 mph69%30.14 "HgN/A
2:00 PM34 °FChilly.12 mph71%30.15 "HgN/A
1:00 PM34 °FChilly.8 mph71%30.16 "HgN/A
12:00 PM33 °FChilly.5 mph69%30.20 "HgN/A
11:00 AM31 °FChilly.9 mph73%30.23 "HgN/A
10:00 AM30 °FChilly.12 mph74%30.23 "HgN/A
9:00 AM28 °FChilly.7 mph71%30.27 "HgN/A
8:00 AM27 °FChilly.8 mph61%30.29 "HgN/A
7:00 AM27 °FChilly.9 mph61%30.29 "HgN/A
6:00 AM27 °FChilly.7 mph59%30.29 "HgN/A
5:00 AM28 °FChilly.7 mph57%30.29 "HgN/A
4:00 AM26 °FChilly.5 mph66%30.33 "HgN/A
3:00 AM24 °FCold.2 mph76%30.36 "HgN/A
Weather by CustomWeather, © 2014

See weather overview